Location: Colle Santa Colomba
(42.0333°N, 12.5667°E)
Time: 03:49:07
(UTC+00:00)

Cosmos 1140 Rocket - Pass Details

Date: 25 October 2021
Orbit: 743 x 768 km, 74.1° (Epoch: 28 November)

Event Time Altitude Azimuth Distance (km) Brightness Sun altitude
Rises 17:33:15 0° 349° (N) 3,219 6.8 -15.5°
Reaches altitude 10° 17:35:54 10° 360° (N) 2,294 5.9 -16.0°
Maximum altitude 17:40:27 30° 61° (ENE) 1,343 4.3 -16.9°
Enters shadow 17:41:16 29° 78° (ENE) 1,383 4.2 -17.0°
